Location: Newark
(8.3333°N, 39.1667°E)
Time: 08:50:42
(UTC+00:00)

Falcon 9 debris - Pass Details

Date: 28 August 2019
Orbit: 430 x 438 km, 53.0° (Epoch: 22 October)

Event Time Altitude Azimuth Distance (km) Brightness Sun altitude
Rises 15:58:32 0° 311° (NW) 2,394 8.1 -6.9°
Reaches altitude 10° 16:00:47 10° 301° (WNW) 1,526 7.3 -7.4°
Maximum altitude 16:03:52 31° 237° (WSW) 774 4.9 -8.2°
Drops below altitude 10° 16:06:57 10° 172° (S) 1,523 5.7 -8.9°
Sets 16:09:11 0° 162° (SSE) 2,388 6.6 -9.5°
